Location: Dittelbrunn
(50.0738°N, 10.2196°E)
Time: 02:53:37
(UTC+00:00)

Cosmos 2034 Rocket - Pass Details

Date: 18 September 2020
Orbit: 957 x 1001 km, 82.9° (Epoch: 19 October)

Event Time Altitude Azimuth Distance (km) Brightness Sun altitude
Rises 18:54:31 0° 176° (S) 3,713 6.8 -14.8°
Reaches altitude 10° 18:57:04 10° 173° (S) 2,767 6.1 -15.2°
Maximum altitude 19:03:20 64° 94° (E) 1,100 4.0 -16.1°
Drops below altitude 10° 19:09:37 10° 15° (NNE) 2,769 6.5 -17.0°
Sets 19:12:09 0° 12° (NNE) 3,717 7.2 -17.4°
